Location: Home
(42.5358°N, 72.7383°W)
Time: 17:34:04
(UTC-05:00)

A-11 Canister half - Pass Details

Date: 05 December 2021
Orbit: 1516 x 1684 km, 47.2° (Epoch: 18 January)

Event Time Altitude Azimuth Distance (km) Brightness Sun altitude
Rises 07:46:13 0° 254° (WSW) 4,765 11.2 5.4°
Reaches altitude 10° 07:49:16 10° 256° (WSW) 3,803 10.7 5.8°
Maximum altitude 07:59:02 78° 343° (NNW) 1,671 9.3 7.2°
Drops below altitude 10° 08:09:10 10° 70° (ENE) 3,930 11.6 8.7°
Sets 08:12:23 0° 72° (ENE) 4,930 12.1 9.1°
